Location: ??
(34.7707°N, 135.6540°E)
Time: 05:26:32
(UTC+00:00)

USA 267 - Pass Details

Date: 09 April 2020
Orbit: 1101 x 1107 km, 123.0° (Epoch: 05 April)

Event Time Altitude Azimuth Distance (km) Brightness Sun altitude
Rises 18:56:02 0° 36° (NE) 3,921 7.2 -19.6°
Reaches altitude 10° 18:58:44 10° 28° (NNE) 2,961 6.3 -19.1°
Maximum altitude 19:04:31 35° 326° (NW) 1,697 4.1 -18.1°
Enters shadow 19:08:02 21° 276° (W) 2,251 4.4 -17.4°
